| time (UTC) | temp F | wind direction | speed MPH | gust MPH | rain 1hr in | rain 24hr in | rain mn in | humidity % | barometer mb |
| 20260831030041 | 66 | 180 | 1.0 | 3.0 | 0.00 | 0.00 | 0.00 | 87 | 1018.0 |
| 20260831025021 | 66 | 180 | 2.0 | 3.0 | 0.00 | 0.00 | 0.00 | 87 | 1018.0 |
| 20260831024020 | 67 | 180 | 1.0 | 3.0 | 0.00 | 0.00 | 0.00 | 86 | 1018.0 |
| 20260831023044 | 67 | 180 | 2.0 | 3.0 | 0.00 | 0.00 | 0.00 | 86 | 1017.9 |
| 20260831022020 | 67 | 0.0 | 1.0 | 0.00 | 0.00 | 0.00 | 85 | 1017.9 | |
| 20260831021020 | 67 | 0.0 | 1.0 | 0.00 | 0.00 | 0.00 | 85 | 1017.8 | |
| 20260831020020 | 67 | 180 | 1.0 | 2.0 | 0.00 | 0.00 | 0.00 | 85 | 1017.8 |
| 20260831015021 | 68 | 180 | 1.0 | 3.0 | 0.00 | 0.00 | 0.00 | 85 | 1017.8 |
| 20260831014020 | 68 | 180 | 2.0 | 5.0 | 0.00 | 0.00 | 0.00 | 85 | 1018.0 |
| 20260831013042 | 68 | 203 | 1.0 | 3.0 | 0.00 | 0.00 | 0.00 | 85 | 1018.1 |
| 20260831012020 | 68 | 180 | 1.0 | 3.0 | 0.00 | 0.00 | 0.00 | 84 | 1018.0 |
| 20260831011022 | 68 | 0.0 | 2.0 | 0.00 | 0.00 | 0.00 | 84 | 1017.9 | |
| 20260831010020 | 69 | 0.0 | 2.0 | 0.00 | 0.00 | 0.00 | 83 | 1017.9 | |
| 20260831005020 | 69 | 0.0 | 2.0 | 0.00 | 0.00 | 0.00 | 83 | 1018.0 | |
| 20260831004020 | 69 | 248 | 1.0 | 2.0 | 0.00 | 0.00 | 0.00 | 83 | 1017.9 |
| 20260831003040 | 69 | 0.0 | 2.0 | 0.00 | 0.00 | 0.00 | 83 | 1017.6 | |
| 20260831002020 | 69 | 248 | 1.0 | 2.0 | 0.00 | 0.00 | 0.00 | 83 | 1017.3 |
| 20260831001020 | 69 | 248 | 1.0 | 3.0 | 0.00 | 0.00 | 0.00 | 83 | 1017.2 |
| 20260831000020 | 69 | 0.0 | 2.0 | 0.00 | 0.00 | 0.00 | 83 | 1017.0 | |
| 20260830235020 | 69 | 270 | 1.0 | 5.0 | 0.00 | 0.00 | 0.00 | 82 | 1017.0 |
| 20260830234020 | 69 | 248 | 1.0 | 3.0 | 0.00 | 0.00 | 0.00 | 83 | 1017.0 |
| 20260830233044 | 69 | 0.0 | 2.0 | 0.00 | 0.00 | 0.00 | 82 | 1016.9 | |
| 20260830232020 | 69 | 248 | 1.0 | 3.0 | 0.00 | 0.00 | 0.00 | 83 | 1016.7 |
| 20260830231020 | 69 | 248 | 1.0 | 2.0 | 0.00 | 0.00 | 0.00 | 83 | 1016.8 |
| 20260830230041 | 69 | 225 | 2.0 | 4.0 | 0.00 | 0.00 | 0.00 | 82 | 1016.8 |
| 20260830225021 | 69 | 0.0 | 2.0 | 0.00 | 0.00 | 0.00 | 82 | 1016.9 | |
| 20260830224020 | 69 | 225 | 1.0 | 3.0 | 0.00 | 0.00 | 0.00 | 82 | 1016.9 |
| 20260830223040 | 69 | 248 | 1.0 | 4.0 | 0.00 | 0.00 | 0.00 | 82 | 1016.8 |
| 20260830222020 | 69 | 248 | 2.0 | 4.0 | 0.00 | 0.00 | 0.00 | 82 | 1017.0 |
| 20260830221020 | 69 | 270 | 1.0 | 3.0 | 0.00 | 0.00 | 0.00 | 82 | 1016.9 |
| 20260830220020 | 69 | 270 | 1.0 | 3.0 | 0.00 | 0.00 | 0.00 | 82 | 1016.8 |
| 20260830215020 | 69 | 270 | 1.0 | 4.0 | 0.00 | 0.00 | 0.00 | 82 | 1016.9 |
| 20260830214021 | 68 | 248 | 2.0 | 4.0 | 0.00 | 0.00 | 0.00 | 83 | 1016.8 |
| 20260830213042 | 68 | 0.0 | 1.0 | 0.00 | 0.00 | 0.00 | 83 | 1016.8 | |
| 20260830212022 | 68 | 225 | 1.0 | 3.0 | 0.00 | 0.00 | 0.00 | 83 | 1016.8 |
| 20260830211021 | 68 | 0.0 | 0.0 | 0.00 | 0.00 | 0.00 | 83 | 1016.9 | |
| 20260830210024 | 68 | 0.0 | 1.0 | 0.00 | 0.00 | 0.00 | 83 | 1016.9 | |
| 20260830205021 | 68 | 0.0 | 1.0 | 0.00 | 0.00 | 0.00 | 84 | 1017.0 | |
| 20260830204023 | 68 | 0.0 | 2.0 | 0.00 | 0.00 | 0.00 | 85 | 1017.0 | |
| 20260830203041 | 67 | 0.0 | 1.0 | 0.00 | 0.00 | 0.00 | 85 | 1016.9 | |
| 20260830202021 | 67 | 0.0 | 1.0 | 0.00 | 0.00 | 0.00 | 86 | 1016.9 | |
| 20260830201021 | 67 | 0 | 2.0 | 4.0 | 0.00 | 0.00 | 0.00 | 86 | 1017.1 |
| 20260830200024 | 67 | 338 | 2.0 | 5.0 | 0.00 | 0.00 | 0.00 | 85 | 1017.1 |
| 20260830195021 | 67 | 23 | 2.0 | 4.0 | 0.00 | 0.00 | 0.00 | 85 | 1017.1 |
| 20260830194021 | 67 | 0 | 2.0 | 3.0 | 0.00 | 0.00 | 0.00 | 85 | 1017.1 |
| 20260830193021 | 67 | 23 | 3.0 | 5.0 | 0.00 | 0.00 | 0.00 | 83 | 1017.2 |
| 20260830192022 | 68 | 338 | 2.0 | 4.0 | 0.00 | 0.00 | 0.00 | 83 | 1017.5 |
| 20260830191021 | 69 | 293 | 2.0 | 5.0 | 0.00 | 0.00 | 0.00 | 81 | 1017.6 |
| 20260830190041 | 68 | 293 | 3.0 | 6.0 | 0.00 | 0.00 | 0.00 | 81 | 1017.7 |
| 20260830185021 | 70 | 23 | 4.0 | 6.0 | 0.00 | 0.00 | 0.00 | 78 | 1017.7 |
| 20260830184021 | 70 | 338 | 5.0 | 9.0 | 0.00 | 0.00 | 0.00 | 76 | 1017.7 |
| 20260830183041 | 70 | 23 | 2.0 | 6.0 | 0.00 | 0.00 | 0.00 | 75 | 1017.7 |
| 20260830182021 | 71 | 293 | 4.0 | 7.0 | 0.00 | 0.00 | 0.00 | 74 | 1017.6 |
| 20260830181020 | 72 | 293 | 4.0 | 10.0 | 0.00 | 0.00 | 0.00 | 69 | 1017.6 |
| 20260830180021 | 73 | 338 | 5.0 | 9.0 | 0.00 | 0.00 | 0.00 | 65 | 1017.5 |
| 20260830175022 | 74 | 293 | 6.0 | 10.0 | 0.00 | 0.00 | 0.00 | 63 | 1017.4 |
| 20260830174041 | 75 | 293 | 4.0 | 8.0 | 0.00 | 0.00 | 0.00 | 64 | 1017.3 |
| 20260830173020 | 76 | 270 | 5.0 | 11.0 | 0.00 | 0.00 | 0.00 | 61 | 1017.3 |
| 20260830172020 | 75 | 315 | 3.0 | 5.0 | 0.00 | 0.00 | 0.00 | 60 | 1017.3 |
| 20260830171020 | 76 | 293 | 2.0 | 5.0 | 0.00 | 0.00 | 0.00 | 59 | 1017.3 |
| 20260830170020 | 75 | 270 | 3.0 | 7.0 | 0.00 | 0.00 | 0.00 | 60 | 1017.3 |
| 20260830165020 | 76 | 270 | 3.0 | 7.0 | 0.00 | 0.00 | 0.00 | 59 | 1017.1 |
| 20260830164021 | 76 | 203 | 4.0 | 10.0 | 0.00 | 0.00 | 0.00 | 60 | 1017.2 |
| 20260830163022 | 76 | 248 | 2.0 | 4.0 | 0.00 | 0.00 | 0.00 | 61 | 1017.3 |
| 20260830162040 | 75 | 203 | 2.0 | 5.0 | 0.00 | 0.00 | 0.00 | 60 | 1017.4 |
| 20260830161020 | 76 | 248 | 2.0 | 5.0 | 0.00 | 0.00 | 0.00 | 59 | 1017.4 |
| 20260830160020 | 76 | 203 | 2.0 | 6.0 | 0.00 | 0.00 | 0.00 | 59 | 1017.4 |
| 20260830155020 | 75 | 225 | 1.0 | 2.0 | 0.00 | 0.00 | 0.00 | 59 | 1017.4 |
| 20260830154020 | 75 | 248 | 2.0 | 4.0 | 0.00 | 0.00 | 0.00 | 61 | 1017.4 |
| 20260830153020 | 75 | 248 | 2.0 | 5.0 | 0.00 | 0.00 | 0.00 | 61 | 1017.5 |
| 20260830152020 | 76 | 180 | 1.0 | 4.0 | 0.00 | 0.00 | 0.00 | 60 | 1017.6 |
| 20260830151020 | 76 | 225 | 3.0 | 5.0 | 0.00 | 0.00 | 0.00 | 58 | 1017.5 |
| 20260830150023 | 76 | 0.0 | 1.0 | 0.00 | 0.00 | 0.00 | 59 | 1017.4 | |
| 20260830145020 | 75 | 158 | 1.0 | 4.0 | 0.00 | 0.00 | 0.00 | 60 | 1017.3 |
| 20260830144020 | 74 | 0.0 | 2.0 | 0.00 | 0.00 | 0.00 | 61 | 1017.4 | |
| 20260830143020 | 74 | 180 | 4.0 | 9.0 | 0.00 | 0.00 | 0.00 | 62 | 1017.2 |
| 20260830142020 | 73 | 180 | 5.0 | 10.0 | 0.00 | 0.00 | 0.00 | 61 | 1017.2 |
| 20260830141020 | 73 | 158 | 3.0 | 6.0 | 0.00 | 0.00 | 0.00 | 61 | 1017.2 |
| 20260830140040 | 73 | 158 | 3.0 | 7.0 | 0.00 | 0.00 | 0.00 | 61 | 1017.3 |
| 20260830135020 | 73 | 180 | 3.0 | 5.0 | 0.00 | 0.00 | 0.00 | 62 | 1017.3 |
| 20260830134020 | 73 | 158 | 1.0 | 5.0 | 0.00 | 0.00 | 0.00 | 62 | 1017.3 |
| 20260830133040 | 72 | 180 | 4.0 | 7.0 | 0.00 | 0.00 | 0.00 | 62 | 1017.3 |
| 20260830132020 | 72 | 158 | 4.0 | 7.0 | 0.00 | 0.00 | 0.00 | 62 | 1017.3 |
| 20260830131020 | 72 | 135 | 1.0 | 5.0 | 0.00 | 0.00 | 0.00 | 62 | 1017.3 |
| 20260830130021 | 72 | 158 | 3.0 | 5.0 | 0.00 | 0.00 | 0.00 | 62 | 1017.2 |
| 20260830125020 | 72 | 158 | 3.0 | 5.0 | 0.00 | 0.00 | 0.00 | 63 | 1017.2 |
| 20260830124020 | 71 | 158 | 5.0 | 8.0 | 0.00 | 0.00 | 0.00 | 63 | 1017.4 |
| 20260830123020 | 71 | 180 | 5.0 | 9.0 | 0.00 | 0.00 | 0.00 | 63 | 1017.5 |
| 20260830122021 | 71 | 180 | 4.0 | 8.0 | 0.00 | 0.00 | 0.00 | 63 | 1017.6 |
| 20260830121021 | 70 | 158 | 5.0 | 9.0 | 0.00 | 0.00 | 0.00 | 63 | 1017.5 |
| 20260830120041 | 70 | 158 | 6.0 | 11.0 | 0.00 | 0.00 | 0.00 | 63 | 1017.4 |
| 20260830115021 | 70 | 180 | 6.0 | 10.0 | 0.00 | 0.00 | 0.00 | 63 | 1017.4 |
| 20260830114021 | 69 | 158 | 3.0 | 6.0 | 0.00 | 0.00 | 0.00 | 63 | 1017.4 |
| 20260830113021 | 69 | 158 | 7.0 | 11.0 | 0.00 | 0.00 | 0.00 | 64 | 1017.5 |
| 20260830112021 | 69 | 135 | 2.0 | 6.0 | 0.00 | 0.00 | 0.00 | 64 | 1017.5 |
| 20260830111042 | 68 | 158 | 2.0 | 6.0 | 0.00 | 0.00 | 0.00 | 65 | 1017.5 |
| 20260830110021 | 68 | 135 | 2.0 | 4.0 | 0.00 | 0.00 | 0.00 | 65 | 1017.6 |
| 20260830105021 | 68 | 135 | 1.0 | 3.0 | 0.00 | 0.00 | 0.00 | 65 | 1017.6 |
| 20260830104021 | 68 | 113 | 1.0 | 3.0 | 0.00 | 0.00 | 0.00 | 65 | 1017.6 |
| 20260830103021 | 68 | 135 | 1.0 | 2.0 | 0.00 | 0.00 | 0.00 | 65 | 1017.6 |
| 20260830102021 | 68 | 135 | 1.0 | 2.0 | 0.00 | 0.00 | 0.00 | 65 | 1017.7 |
| 20260830101021 | 69 | 135 | 1.0 | 3.0 | 0.00 | 0.00 | 0.00 | 65 | 1017.7 |
| 20260830100021 | 69 | 135 | 1.0 | 3.0 | 0.00 | 0.00 | 0.00 | 64 | 1017.6 |
| 20260830095021 | 69 | 158 | 2.0 | 5.0 | 0.00 | 0.00 | 0.00 | 63 | 1017.7 |
| 20260830094021 | 70 | 158 | 1.0 | 6.0 | 0.00 | 0.00 | 0.00 | 62 | 1017.7 |
| 20260830093021 | 71 | 158 | 3.0 | 10.0 | 0.00 | 0.00 | 0.00 | 60 | 1017.8 |
| 20260830092021 | 71 | 158 | 4.0 | 10.0 | 0.00 | 0.00 | 0.00 | 60 | 1017.9 |
| 20260830091021 | 71 | 203 | 5.0 | 11.0 | 0.00 | 0.00 | 0.00 | 60 | 1018.0 |
| 20260830090021 | 71 | 180 | 2.0 | 4.0 | 0.00 | 0.00 | 0.00 | 60 | 1018.0 |
| 20260830085021 | 71 | 180 | 3.0 | 6.0 | 0.00 | 0.00 | 0.00 | 60 | 1018.2 |
| 20260830084021 | 71 | 203 | 3.0 | 7.0 | 0.00 | 0.00 | 0.00 | 60 | 1018.2 |
| 20260830083021 | 71 | 225 | 3.0 | 6.0 | 0.00 | 0.00 | 0.00 | 60 | 1018.3 |
| 20260830082040 | 72 | 225 | 3.0 | 6.0 | 0.00 | 0.00 | 0.00 | 59 | 1018.2 |
| 20260830081021 | 72 | 225 | 4.0 | 11.0 | 0.00 | 0.00 | 0.00 | 59 | 1018.1 |
| 20260830080020 | 72 | 225 | 4.0 | 11.0 | 0.00 | 0.00 | 0.00 | 59 | 1018.1 |
| 20260830075021 | 72 | 225 | 5.0 | 10.0 | 0.00 | 0.00 | 0.00 | 59 | 1018.2 |
| 20260830074021 | 72 | 203 | 3.0 | 7.0 | 0.00 | 0.00 | 0.00 | 59 | 1018.2 |
| 20260830073021 | 71 | 113 | 2.0 | 6.0 | 0.00 | 0.00 | 0.00 | 60 | 1018.4 |
| 20260830072020 | 71 | 158 | 2.0 | 7.0 | 0.00 | 0.00 | 0.00 | 60 | 1018.3 |
| 20260830071020 | 71 | 248 | 3.0 | 6.0 | 0.00 | 0.00 | 0.00 | 60 | 1018.3 |
| 20260830070021 | 71 | 248 | 3.0 | 9.0 | 0.00 | 0.00 | 0.00 | 64 | 1018.2 |
| 20260830065021 | 69 | 180 | 2.0 | 5.0 | 0.00 | 0.00 | 0.00 | 64 | 1018.3 |
| 20260830064040 | 69 | 158 | 3.0 | 5.0 | 0.00 | 0.00 | 0.00 | 65 | 1018.4 |
| 20260830063021 | 69 | 158 | 2.0 | 4.0 | 0.00 | 0.00 | 0.00 | 66 | 1018.3 |
| 20260830062020 | 69 | 158 | 2.0 | 3.0 | 0.00 | 0.00 | 0.00 | 65 | 1018.3 |
| 20260830061020 | 69 | 135 | 2.0 | 4.0 | 0.00 | 0.00 | 0.00 | 65 | 1018.3 |
| 20260830060041 | 69 | 158 | 4.0 | 5.0 | 0.00 | 0.00 | 0.00 | 66 | 1018.4 |
| 20260830055020 | 68 | 158 | 4.0 | 6.0 | 0.00 | 0.00 | 0.00 | 66 | 1018.4 |
| 20260830054020 | 68 | 158 | 5.0 | 6.0 | 0.00 | 0.00 | 0.00 | 66 | 1018.4 |
| 20260830053020 | 68 | 158 | 3.0 | 5.0 | 0.00 | 0.00 | 0.00 | 67 | 1018.4 |
| 20260830052040 | 68 | 158 | 4.0 | 6.0 | 0.00 | 0.00 | 0.00 | 67 | 1018.4 |
| 20260830051040 | 68 | 158 | 4.0 | 5.0 | 0.00 | 0.00 | 0.00 | 67 | 1018.4 |
| 20260830050020 | 68 | 158 | 3.0 | 5.0 | 0.00 | 0.00 | 0.00 | 68 | 1018.5 |
| 20260830045021 | 67 | 158 | 4.0 | 5.0 | 0.00 | 0.00 | 0.00 | 68 | 1018.5 |
| 20260830044044 | 67 | 158 | 4.0 | 5.0 | 0.00 | 0.00 | 0.00 | 68 | 1018.6 |
| 20260830043020 | 67 | 158 | 3.0 | 5.0 | 0.00 | 0.00 | 0.00 | 68 | 1018.6 |
| 20260830042020 | 67 | 158 | 3.0 | 5.0 | 0.00 | 0.00 | 0.00 | 68 | 1018.7 |
| 20260830041020 | 67 | 158 | 2.0 | 3.0 | 0.00 | 0.00 | 0.00 | 68 | 1018.6 |
| 20260830040021 | 67 | 135 | 1.0 | 3.0 | 0.00 | 0.00 | 0.00 | 67 | 1018.5 |
| 20260830035020 | 68 | 158 | 2.0 | 4.0 | 0.00 | 0.00 | 0.00 | 67 | 1018.4 |
| 20260830034040 | 68 | 158 | 2.0 | 4.0 | 0.00 | 0.00 | 0.00 | 66 | 1018.4 |
| 20260830033020 | 68 | 158 | 2.0 | 4.0 | 0.00 | 0.00 | 0.00 | 66 | 1018.4 |
| 20260830032040 | 68 | 158 | 2.0 | 4.0 | 0.00 | 0.00 | 0.00 | 66 | 1018.4 |
| 20260830031020 | 68 | 158 | 2.0 | 5.0 | 0.00 | 0.00 | 0.00 | 67 | 1018.3 |